Kosmos-1160

operational
NORAD ID: 11695 Int'l Des: 1980-012 Owner: GUKOSR Country: SU
LEOCIRCULAR

Kosmos-1160について

説明を読み込み中...

リアルタイム位置

3D地球を読み込み中...

次回通過

高度履歴

Altitude vs Time

uPlot chart will show altitude changes over time

軌道要素

1 11695U 80012E 26063.47089565 -.00000026 00000-0 -67402-4 0 9997
2 11695 74.0215 193.7398 0011829 228.5052 199.0481 12.47774313 97926
Epoch: Mar 4, 2026 • Age: 18 hours

現在のステータス

高度 1492.3 km
速度 7.12 km/s
衛星直下点 -71.85°S, 0.38°W
打ち上げ日 Feb 11, 1980
運用期間 46 years
タイプ other

技術仕様

分類 Payload
質量 60.00 kg
乾燥質量 60.00 kg
総質量 60.00 kg
長さ 0.80 m
直径 0.80 m
スパン 0.80 m
形状 Poly
製造者 NPOPM
バスタイプ Strela-1 11F625
フェーズステータス In Orbit
所有者/国 GUKOSR/SU

大規模コンステレーション

Loading constellations...